Location: Gro�wechsungen
(51.4926°N, 10.6901°E)
Time: 11:20:18
(UTC+00:00)

Cosmos 1833 Rocket - Pass Details

Date: 18 September 2020
Orbit: 831 x 841 km, 71.0° (Epoch: 30 October)

Event Time Altitude Azimuth Distance (km) Brightness Sun altitude
Rises 19:58:56 0° 330° (NNW) 3,408 6.9 -23.4°
Reaches altitude 10° 20:01:27 10° 335° (NNW) 2,470 5.9 -23.7°
Maximum altitude 20:07:02 56° 54° (NE) 996 2.9 -24.4°
Enters shadow 20:07:41 53° 81° (E) 1,030 2.8 -24.4°
